This demonstration page uses our WeatherBlox Daily Observations layout. Learn more.

Left ArrowRight Arrow

39.51506, -84.39828

Hourly Observations for March 25, 2015

Temp ( °F °C ) Dew Point ( °F °C ) Humidity (%) Winds ( mph kmh ) Pressure ( in mb ) Visibility ( mi km ) Precip ( " mm )
12:15 am 00:15 Cloudy 47 8.2 36 2.1 66 66 N N/A 30.09 1019 10 16 N/A
12:35 am 00:35 Cloudy 47 8.2 37 2.5 68 68 N N/A 30.12 1020 10 16 N/A
12:55 am 00:55 Cloudy with Drizzle 47 8.2 36 2.4 67 67 S 3 6 30.12 1020 10 16 N/A
1:15 am 01:15 Cloudy 49 9.6 37 2.5 62 62 N N/A 30.12 1020 10 16 N/A
1:35 am 01:35 Cloudy with Light Snow 49 9.2 39 3.7 69 69 ENE 7 11 30.06 1018 7 11 N/A
1:55 am 01:55 Cloudy with Light Snow 47 8.2 38 3.6 73 73 NE 8 13 30.06 1018 10 16 N/A
2:15 am 02:15 Cloudy 47 8.2 39 3.9 75 75 N N/A 30.06 1018 10 16 N/A
2:35 am 02:35 Cloudy 47 8.2 40 4.2 76 76 NE 5 7 30.03 1017 10 16 N/A
2:55 am 02:55 Partly Cloudy 46 7.6 39 3.7 77 77 N N/A 30.03 1017 10 16 N/A
3:15 am 03:15 Mostly Cloudy 48 9.1 40 4.2 72 72 SE 5 7 30.03 1017 10 16 N/A
3:35 am 03:35 Mostly Cloudy 49 9.6 40 4.2 69 69 SE 3 6 30.00 1016 10 16 N/A
3:55 am 03:55 Mostly Cloudy 49 9.6 39 4 68 68 SE 3 6 30.00 1016 10 16 N/A
4:15 am 04:15 Cloudy with Light Snow 49 9.6 39 4.1 69 69 S 5 7 30.00 1016 7 11 N/A
4:35 am 04:35 Cloudy 49 9.6 40 4.4 70 70 NE 5 7 29.97 1015 10 16 N/A
4:55 am 04:55 Cloudy with Light Snow 49 9.6 42 5.4 75 75 N N/A 30.00 1016 7 11 N/A
5:15 am 05:15 Cloudy 47 8.6 41 5.2 79 79 N N/A 29.97 1015 10 16 N/A
5:35 am 05:35 Cloudy 49 9.6 43 6.2 80 80 N N/A 29.94 1014 10 16 N/A
5:55 am 05:55 Cloudy 47 8.3 41 5.2 81 81 N N/A 29.94 1014 10 16 N/A
6:15 am 06:15 Cloudy 49 9.6 43 6.1 79 79 N N/A 29.94 1014 10 16 N/A
6:35 am 06:35 Cloudy with Light Snow 49 9.6 44 6.7 82 82 S 13 20 29.94 1014 3 4 N/A
6:55 am 06:55 Cloudy 52 11 46 7.6 80 80 SW 5 7 29.91 1013 10 16 N/A
7:15 am 07:15 Cloudy 52 11 46 7.7 80 80 SW 7 11 29.94 1014 10 16 N/A
7:35 am 07:35 Cloudy 55 12.5 48 8.8 78 78 SSW 12 19 29.94 1014 10 16 N/A
7:55 am 07:55 Cloudy 55 12.5 47 8.5 77 77 SSW 10 17 29.94 1014 10 16 N/A
8:15 am 08:15 Mostly Cloudy 55 12.5 48 9 79 79 SSW 10 17 29.94 1014 10 16 N/A
10:35 am 10:35 Cloudy 61 16 51 10.3 69 69 SW 24 39 29.94 1014 10 16 N/A
10:55 am 10:55 Cloudy 62 16.8 51 10.5 67 67 SW 17 28 29.94 1014 10 16 N/A
11:15 am 11:15 Cloudy 62 16.6 51 10.3 67 67 WSW 16 26 29.94 1014 10 16 N/A
11:35 am 11:35 Cloudy 62 16.8 51 10.3 66 66 WSW 17 28 29.94 1014 10 16 N/A
11:55 am 11:55 Cloudy 64 17.5 51 10.3 63 63 W 23 37 29.97 1015 10 16 N/A
12:15 pm 12:15 Mostly Cloudy 62 16.7 50 10.1 65 65 W 24 39 29.97 1015 10 16 N/A
12:35 pm 12:35 Partly Cloudy 63 17.3 50 9.9 62 62 W 17 28 30.00 1016 10 16 N/A
12:55 pm 12:55 Partly Cloudy 63 17.2 49 9.5 61 61 W 20 31 30.00 1016 10 16 N/A
1:15 pm 13:15 Partly Cloudy 62 16.6 49 9.3 62 62 W 18 30 30.00 1016 10 16 N/A
1:35 pm 13:35 Partly Cloudy 62 16.6 48 9.1 61 61 W 20 31 30.00 1016 10 16 N/A
1:55 pm 13:55 Mostly Cloudy 61 16 48 8.9 63 63 W 16 26 30.00 1016 10 16 N/A
2:15 pm 14:15 Mostly Cloudy 62 16.5 48 9.1 62 62 W 21 33 30.03 1017 10 16 N/A
2:35 pm 14:35 Partly Cloudy 62 16.6 48 9 61 61 W 17 28 30.00 1016 10 16 N/A
2:55 pm 14:55 Partly Cloudy 62 16.7 48 8.7 59 59 W 20 31 30.00 1016 10 16 N/A
3:15 pm 15:15 Partly Cloudy 62 16.6 48 9 61 61 W 25 41 30.03 1017 10 16 N/A
3:35 pm 15:35 Partly Cloudy 61 16.2 48 8.7 61 61 W 22 35 30.03 1017 10 16 N/A
3:55 pm 15:55 Partly Cloudy 62 16.8 47 8.4 58 58 WNW 16 26 30.03 1017 10 16 N/A
4:15 pm 16:15 Sunny 63 17.2 47 8.1 55 55 WNW 15 24 30.03 1017 10 16 N/A
4:35 pm 16:35 Sunny 64 17.8 47 8.1 53 53 W 16 26 30.03 1017 10 16 N/A
4:55 pm 16:55 Partly Cloudy 62 16.6 46 7.6 56 56 W 16 26 30.03 1017 10 16 N/A
5:15 pm 17:15 Partly Cloudy 63 17 45 7.4 53 53 W 13 20 30.03 1017 10 16 N/A
5:35 pm 17:35 Sunny 62 16.6 45 7 53 53 W 8 13 30.03 1017 10 16 N/A
5:55 pm 17:55 Sunny 62 16.8 45 7 53 53 undefined N/A 30.03 1017 10 16 N/A
6:15 pm 18:15 Sunny 62 16.6 45 7 53 53 W 9 15 30.03 1017 10 16 N/A
6:35 pm 18:35 Sunny 61 16 45 7.1 56 56 W 7 11 30.03 1017 10 16 N/A
6:55 pm 18:55 Sunny 60 15.8 46 7.5 58 58 WNW 6 9 30.03 1017 10 16 N/A
7:15 pm 19:15 Sunny 60 15.3 46 7.5 60 60 WNW 5 7 30.06 1018 10 16 N/A
7:35 pm 19:35 Sunny 60 15.3 47 8.1 62 62 NW 6 9 30.06 1018 10 16 N/A
7:55 pm 19:55 Clear 59 15 46 7.8 62 62 N N/A 30.06 1018 10 16 N/A
8:15 pm 20:15 Clear 56 13.1 45 7.3 68 68 N N/A 30.06 1018 10 16 N/A
8:35 pm 20:35 Clear 55 12.5 46 7.7 73 73 NNW 3 6 30.06 1018 10 16 N/A
8:55 pm 20:55 Clear 52 11.1 46 7.8 80 80 N N/A 30.06 1018 10 16 N/A
9:15 pm 21:15 Clear 52 11 45 7.4 79 79 NNE 5 7 30.06 1018 10 16 N/A
9:35 pm 21:35 Clear 54 12.4 47 8.4 77 77 E 3 6 30.06 1018 10 16 N/A
9:55 pm 21:55 Clear 55 12.5 47 8.1 75 75 NNE 3 6 30.03 1017 10 16 N/A
10:15 pm 22:15 Clear 52 10.9 45 7.3 79 79 N N/A 30.03 1017 10 16 N/A
10:35 pm 22:35 Clear 49 9.6 44 6.5 81 81 N 3 6 30.03 1017 10 16 N/A
10:55 pm 22:55 Clear 49 9.6 45 7.1 85 85 N 6 9 30.03 1017 10 16 N/A
11:15 pm 23:15 Clear 47 8.2 43 6 86 86 N 6 9 30.03 1017 10 16 N/A
11:35 pm 23:35 Clear 47 8.2 43 6 86 86 N N/A 30.00 1016 10 16 N/A
11:55 pm 23:55 Clear 49 9.6 45 7.3 86 86 N N/A 30.00 1016 10 16 N/A

Powered by AerisWeather